Location: *
(46.3500°N, 10.9000°E)
Time: 07:50:21
(UTC+00:00)

Vanguard 3 - Visible Passes

Search period start: 20 April 2021 00:00
Search period end: 30 April 2021 00:00
Orbit: 508 x 3262 km, 33.3° (Epoch: 19 April)

Date Brightness Start Highest point End Pass type
(mag) Time Alt. Az. Time Alt. Az. Time Alt. Az.
21 Apr 8.3 02:45:44 12° S 02:45:44 12° S 02:46:52 10° SSE visible
23 Apr 8.6 02:30:30 10° SSE 02:30:30 10° SSE 02:30:35 10° SSE visible
27 Apr 10.0 20:13:48 10° S 20:18:13 15° S 20:18:13 15° S visible
28 Apr 10.1 19:01:31 10° SSE 19:05:04 11° SSE 19:08:13 10° SE visible
28 Apr 9.9 21:09:25 10° SSW 21:14:01 19° SSW 21:14:01 19° SSW visible
29 Apr 9.6 19:54:28 10° SSW 20:03:03 20° SSE 20:05:06 19° SE visible
29 Apr 10.0 22:06:49 10° SW 22:09:44 17° SW 22:09:44 17° SW visible
